Location: Unspecified
(35.6961°N, 0.0000°E)
Time: 14:26:40
(UTC+00:00)

S-56A Canister/Altair - Pass Details

Date: 31 May 2019
Orbit: 633 x 2499 km, 38.9° (Epoch: 25 June)

Event Time Altitude Azimuth Distance (km) Brightness Sun altitude
Rises 21:24:42 0° 219° (SW) 2,946 - -21.9°
Reaches altitude 10° 21:27:12 10° 207° (SSW) 2,001 - -22.2°
Maximum altitude 21:31:03 29° 146° (SE) 1,176 - -22.7°
Drops below altitude 10° 21:35:15 10° 86° (E) 2,205 - -23.2°
Sets 21:38:10 0° 75° (ENE) 3,309 - -23.5°
